Terminal Aerodrome Forecast
Issued by NWS Twin Cities, MN

Home | Current Version | Previous Version | Text Only | Print | Product List | Glossary Off
Versions: 1 2 3 4 5 6 7 8 9 10 11 12 13

656
FTUS43 KMPX 191125
TAFSTC
TAF
KSTC 191125Z 1912/2012 19007KT P6SM BKN250
     FM192000 23008KT P6SM BKN200
     FM200000 26006KT P6SM BKN120
     FM200400 28004KT P6SM BKN120=

USA.gov is the U.S. government's official web portal to all federal, state and local government web resources and services.